• în Republica Moldova
  • Lista ţărilor
  • Pe 7 zile
  • Temperatura apei
  • Hartă satelitară
  • Meteo pe hartă
  • Widget-uri
  • user-avatar
    Intrare

    Meteo pe oră la Shaki

    Astăzi, 20 August, Duminică

    Timp Temperatura Precipitaţii Vânt Presiune Umiditate
    00:00 +26°C° 0 mm 2 m/s 737 mmHg 40%
    01:00 +26°C° 0 mm 2 m/s 737 mmHg 39%
    02:00 +25°C° 0 mm 2 m/s 737 mmHg 39%
    03:00 +25°C° 0 mm 2 m/s 737 mmHg 39%
    04:00 +25°C° 0 mm 2 m/s 737 mmHg 38%
    05:00 +25°C° 0 mm 2 m/s 737 mmHg 37%
    06:00 +25°C° 0 mm 2 m/s 737 mmHg 35%
    07:00 +28°C° 0 mm 2 m/s 737 mmHg 31%
    08:00 +30°C° 0 mm 2 m/s 737 mmHg 27%
    09:00 +32°C° 0 mm 2 m/s 736 mmHg 23%
    10:00 +34°C° 0 mm 2 m/s 736 mmHg 22%
    11:00 +35°C° 0 mm 3 m/s 736 mmHg 21%
    12:00 +36°C° 0 mm 3 m/s 735 mmHg 20%
    13:00 +37°C° 0 mm 3 m/s 735 mmHg 20%
    14:00 +37°C° 0 mm 4 m/s 735 mmHg 20%
    15:00 +38°C° 0 mm 4 m/s 734 mmHg 20%
    16:00 +37°C° 0 mm 4 m/s 734 mmHg 22%
    17:00 +35°C° 0 mm 4 m/s 734 mmHg 24%
    18:00 +34°C° 0 mm 4 m/s 734 mmHg 26%
    19:00 +33°C° 0 mm 4 m/s 735 mmHg 28%
    20:00 +30°C° 0 mm 4 m/s 735 mmHg 30%
    21:00 +28°C° 0 mm 4 m/s 735 mmHg 32%
    22:00 +28°C° 0 mm 3 m/s 735 mmHg 33%
    23:00 +27°C° 0 mm 3 m/s 735 mmHg 33%

    Mâine, 21 August, Luni

    Timp Temperatura Precipitaţii Vânt Presiune Umiditate
    00:00 +26°C° 0 mm 2 m/s 735 mmHg 33%
    01:00 +26°C° 0 mm 2 m/s 735 mmHg 33%
    02:00 +26°C° 0 mm 2 m/s 735 mmHg 33%
    03:00 +25°C° 0 mm 2 m/s 734 mmHg 33%
    04:00 +26°C° 0 mm 2 m/s 734 mmHg 33%
    05:00 +26°C° 0 mm 2 m/s 734 mmHg 33%
    06:00 +26°C° 0 mm 2 m/s 734 mmHg 32%
    07:00 +28°C° 0 mm 2 m/s 734 mmHg 29%
    08:00 +30°C° 0 mm 2 m/s 734 mmHg 25%
    09:00 +32°C° 0 mm 2 m/s 734 mmHg 22%
    10:00 +34°C° 0 mm 2 m/s 734 mmHg 21%
    11:00 +35°C° 0 mm 2 m/s 733 mmHg 20%
    12:00 +37°C° 0 mm 3 m/s 733 mmHg 19%
    13:00 +37°C° 0 mm 3 m/s 732 mmHg 19%
    14:00 +37°C° 0 mm 3 m/s 732 mmHg 19%
    15:00 +38°C° 0 mm 3 m/s 732 mmHg 19%
    16:00 +37°C° 0 mm 3 m/s 732 mmHg 21%
    17:00 +36°C° 0 mm 3 m/s 732 mmHg 23%
    18:00 +35°C° 0 mm 3 m/s 732 mmHg 25%
    19:00 +33°C° 0 mm 3 m/s 732 mmHg 27%
    20:00 +31°C° 0 mm 3 m/s 732 mmHg 29%
    21:00 +29°C° 0 mm 3 m/s 733 mmHg 30%
    22:00 +28°C° 0 mm 3 m/s 733 mmHg 31%
    23:00 +28°C° 0 mm 3 m/s 733 mmHg 33%

    Poimâine, 22 August, Marţi

    Timp Temperatura Precipitaţii Vânt Presiune Umiditate
    00:00 +27°C° 0 mm 2 m/s 733 mmHg 34%
    01:00 +27°C° 0 mm 2 m/s 732 mmHg 35%
    02:00 +26°C° 0 mm 2 m/s 732 mmHg 36%
    03:00 +26°C° 0 mm 2 m/s 732 mmHg 36%
    04:00 +26°C° 0 mm 2 m/s 732 mmHg 36%
    05:00 +26°C° 0 mm 1 m/s 732 mmHg 35%
    06:00 +26°C° 0 mm 1 m/s 732 mmHg 34%
    07:00 +29°C° 0 mm 1 m/s 732 mmHg 30%
    08:00 +31°C° 0 mm 1 m/s 732 mmHg 26%
    09:00 +33°C° 0 mm 1 m/s 732 mmHg 21%
    10:00 +35°C° 0 mm 2 m/s 732 mmHg 20%
    11:00 +36°C° 0 mm 2 m/s 732 mmHg 19%
    12:00 +37°C° 0 mm 3 m/s 731 mmHg 17%
    13:00 +38°C° 0 mm 3 m/s 731 mmHg 17%
    14:00 +38°C° 0 mm 3 m/s 731 mmHg 17%
    15:00 +39°C° 0 mm 3 m/s 730 mmHg 16%
    16:00 +38°C° 0 mm 3 m/s 730 mmHg 18%
    17:00 +36°C° 0 mm 3 m/s 731 mmHg 21%
    18:00 +35°C° 0 mm 3 m/s 731 mmHg 23%
    19:00 +34°C° 0 mm 3 m/s 731 mmHg 24%
    20:00 +31°C° 0 mm 3 m/s 732 mmHg 26%
    21:00 +29°C° 0 mm 3 m/s 732 mmHg 27%
    22:00 +29°C° 0 mm 3 m/s 732 mmHg 28%
    23:00 +28°C° 0 mm 3 m/s 732 mmHg 29%

    23 August, Miercuri

    Timp Temperatura Precipitaţii Vânt Presiune Umiditate
    00:00 +27°C° 0 mm 2 m/s 732 mmHg 30%
    01:00 +27°C° 0 mm 2 m/s 732 mmHg 30%
    02:00 +26°C° 0 mm 2 m/s 732 mmHg 30%
    03:00 +26°C° 0 mm 2 m/s 732 mmHg 30%
    04:00 +26°C° 0 mm 2 m/s 733 mmHg 30%
    05:00 +26°C° 0 mm 1 m/s 733 mmHg 29%
    06:00 +27°C° 0 mm 1 m/s 733 mmHg 29%
    07:00 +29°C° 0 mm 2 m/s 733 mmHg 25%
    08:00 +31°C° 0 mm 2 m/s 733 mmHg 21%
    09:00 +35°C° 0 mm 2 m/s 734 mmHg 17%
    10:00 +36°C° 0 mm 3 m/s 733 mmHg 16%
    11:00 +37°C° 0 mm 4 m/s 733 mmHg 15%
    12:00 +38°C° 0 mm 4 m/s 733 mmHg 14%
    13:00 +39°C° 0 mm 5 m/s 733 mmHg 15%
    14:00 +40°C° 0 mm 5 m/s 733 mmHg 16%
    15:00 +40°C° 0 mm 5 m/s 733 mmHg 16%
    16:00 +37°C° 0 mm 5 m/s 733 mmHg 19%
    17:00 +36°C° 0 mm 5 m/s 733 mmHg 21%
    18:00 +35°C° 0 mm 5 m/s 733 mmHg 23%
    19:00 +33°C° 0 mm 4 m/s 734 mmHg 24%
    20:00 +30°C° 0 mm 3 m/s 734 mmHg 26%
    21:00 +28°C° 0 mm 3 m/s 735 mmHg 27%
    22:00 +28°C° 0 mm 2 m/s 735 mmHg 27%
    23:00 +27°C° 0 mm 2 m/s 735 mmHg 28%

    24 August, Joi

    Timp Temperatura Precipitaţii Vânt Presiune Umiditate
    00:00 +27°C° 0 mm 2 m/s 735 mmHg 28%
    01:00 +27°C° 0 mm 1 m/s 735 mmHg 28%
    02:00 +26°C° 0 mm 1 m/s 736 mmHg 28%
    03:00 +26°C° 0 mm 1 m/s 736 mmHg 29%
    04:00 +26°C° 0 mm 1 m/s 736 mmHg 29%
    05:00 +26°C° 0 mm 2 m/s 737 mmHg 30%
    06:00 +26°C° 0 mm 2 m/s 737 mmHg 31%
    07:00 +29°C° 0 mm 2 m/s 737 mmHg 27%
    08:00 +31°C° 0 mm 2 m/s 737 mmHg 24%
    09:00 +34°C° 0 mm 2 m/s 737 mmHg 20%
    10:00 +35°C° 0 mm 2 m/s 737 mmHg 18%
    11:00 +36°C° 0 mm 3 m/s 737 mmHg 16%
    12:00 +38°C° 0 mm 4 m/s 737 mmHg 14%
    13:00 +39°C° 0 mm 5 m/s 737 mmHg 14%
    14:00 +39°C° 0 mm 5 m/s 736 mmHg 14%
    15:00 +40°C° 0 mm 5 m/s 736 mmHg 14%
    16:00 +37°C° 0 mm 5 m/s 736 mmHg 16%
    17:00 +36°C° 0 mm 5 m/s 736 mmHg 18%
    18:00 +34°C° 0 mm 5 m/s 736 mmHg 21%
    19:00 +33°C° 0 mm 4 m/s 737 mmHg 22%
    20:00 +30°C° 0 mm 4 m/s 737 mmHg 22%
    21:00 +28°C° 0 mm 4 m/s 738 mmHg 23%
    22:00 +27°C° 0 mm 3 m/s 738 mmHg 23%
    23:00 +27°C° 0 mm 3 m/s 738 mmHg 23%

    25 August, Vineri

    Timp Temperatura Precipitaţii Vânt Presiune Umiditate
    00:00 +26°C° 0 mm 2 m/s 738 mmHg 24%
    01:00 +26°C° 0 mm 2 m/s 738 mmHg 24%
    02:00 +25°C° 0 mm 2 m/s 738 mmHg 25%
    03:00 +25°C° 0 mm 1 m/s 738 mmHg 25%
    04:00 +25°C° 0 mm 1 m/s 738 mmHg 27%
    05:00 +25°C° 0 mm 1 m/s 738 mmHg 28%
    06:00 +25°C° 0 mm 1 m/s 738 mmHg 30%
    07:00 +27°C° 0 mm 1 m/s 738 mmHg 27%
    08:00 +29°C° 0 mm 1 m/s 738 mmHg 24%
    09:00 +32°C° 0 mm 2 m/s 738 mmHg 21%
    10:00 +34°C° 0 mm 2 m/s 738 mmHg 20%
    11:00 +35°C° 0 mm 2 m/s 738 mmHg 18%
    12:00 +36°C° 0 mm 2 m/s 737 mmHg 16%
    13:00 +37°C° 0 mm 3 m/s 737 mmHg 15%
    14:00 +37°C° 0 mm 3 m/s 737 mmHg 14%
    15:00 +37°C° 0 mm 4 m/s 737 mmHg 14%
    16:00 +36°C° 0 mm 3 m/s 737 mmHg 16%
    17:00 +35°C° 0 mm 3 m/s 737 mmHg 18%
    18:00 +34°C° 0 mm 3 m/s 737 mmHg 19%
    19:00 +31°C° 0 mm 3 m/s 737 mmHg 22%
    20:00 +29°C° 0 mm 3 m/s 737 mmHg 25%
    21:00 +28°C° 0 mm 3 m/s 738 mmHg 28%
    22:00 +27°C° 0 mm 3 m/s 738 mmHg 30%
    23:00 +26°C° 0 mm 3 m/s 738 mmHg 33%
    Arată mai mult